Location: Evansville
(37.9747°N, 87.5558°W)
Time: 09:41:56
(UTC-06:00)

Tiangong - Visible Passes

Search period start: 07 December 2025 00:00
Search period end: 17 December 2025 00:00
Orbit: 385 x 397 km, 41.5° (Epoch: 06 December)

Date Brightness Start Highest point End Pass type
(mag) Time Alt. Az. Time Alt. Az. Time Alt. Az.
07 Dec -2.1 05:31:34 38° WNW 05:32:37 71° NNE 05:35:51 10° E visible
08 Dec 0.4 04:36:44 22° E 04:36:44 22° E 04:38:05 10° E visible
08 Dec -1.3 06:09:04 12° W 06:11:53 42° SSW 06:14:58 10° SE visible
09 Dec -2.2 05:14:12 71° SSW 05:14:15 71° SSW 05:17:27 10° ESE visible
10 Dec 1.3 04:19:19 13° ESE 04:19:19 13° ESE 04:19:43 10° ESE visible
10 Dec -0.4 05:51:40 16° WSW 05:53:15 22° SSW 05:55:50 10° SSE visible
11 Dec -0.3 04:56:47 26° SSE 04:56:47 26° SSE 04:58:35 10° SE visible
12 Dec 0.4 05:34:15 12° SW 05:34:19 12° SW 05:35:31 10° SSW visible
